Showing default

SENTINEL 3A, 41335

Orbit data source: Space-Track

SENTINEL 3A, 41335 is an ESA payload satellite in SSO that was launched on Tue, 16 Feb 2016 UTC via an ROKOT launch vehicle from the Plesetsk Missile And Space Complex (PKMTR). Payload-class satellites include a variety of spacecraft equipped with specific instruments for various scientific and technological missions. These include communications satellites like Starlink; space stations such as the ISS; scientific satellites like the Hubble; Earth observation satellites from companies like Planet Labs, Umbra, and HawkEye 360; GPS; miniature CubeSats for education and research; and military/defense satellites.

Loading next visibility...
Identifier
41335, 2016-011A
Orbit
SSO
Country
Flag of ESAESA
Related business
Manufacturer
Thales Alenia
Mission
Operational Civil Imaging
Bus & Motor
SENTINEL-3A, Unknown motor
Mass
1,250 kg wet, 1,150 kg dry
Launch date (UTC)
2016-02-16 (10 years ago)
Launch vehicle
ROKOT
Launch site
Plesetsk Missile And Space Complex (PKMTR)
Object type
Payload
Rocket body
Debris
Shape & HBR
Box + 1 Pan, 3.5 m
Radar Cross Section
12.454 m², Large (>1 m²)

Expand to show TLE details & history
Last TLE update: 16 hours ago

TLE from 16 hours ago
0 SENTINEL 3A
1 41335U 16011A   25306.48661463  .00000171  00000-0  88510-4 0  9994
2 41335  98.6257  12.0883 0001181  95.1646 264.9669 14.26737049505734
Epoch: 2025-11-02T11:40Z
TLE epoch observation values (Epoch: 2025-11-02T11:40:43.504Z)
Latitude
-0.00002°
Longitude
154.90539°
Altitude
805.659 km
Speed
7.451 km/s
True Right ascension
00h 48m 21s
True Declination
0° 00' 00"
Sunlit
Object was in full shadow at epoch
Visualization orbit readout
Latitude
Unknown
Longitude
Unknown
Altitude
Unknown
Speed
Unknown
Apparent Right ascension
Unknown
Apparent Declination
Unknown
Sunlit
N/A
Visualization observer readout
Local Sidereal Time
23:05:54
Azimuth
Unknown
Elevation
Unknown
Doppler factor
Unknown
Orbital elements
Apogee altitude
800.652 km
Perigee altitude
798.956 km
Semi-major axis
7,177.941 km
Eccentricity
0.00012
Inclination
98.6257°
RAAN
12.0883°
Arg. of periapsis
95.1646°
True anomaly
264.95342°
Mean anomaly
264.9669°
Eccentric anomaly
264.96016°
Mean motion
3.56897 °/min
Orbital period
100.87 mins
BSTAR
0.00008851
Loading maneuver chart data...
Computing Atmospheric mass density...
Loading historical data...
Loading historical data...
Loading historical data...
Loading historical data...
Loading historical data...
Loading historical data...
Loading historical data...
Other satellites on launch #11 in the year 2016 (2016-02-16 UTC)

Documentation

Showing up to 5 results
|